Weather History for Defiance, OH

Change the Weather History Date:

Monday, February 13, 2012

  Actual Average Record
Temperature  
Mean Temperature 28 °F -  
Max Temperature 35 °F 32 °F 70 °F (1938)
Min Temperature 21 °F 13 °F -10 °F (1979)
Degree Days  
Heating Degree Days 37    
Moisture  
Dew Point 14 °F    
Average Humidity 55    
Maximum Humidity 66    
Minimum Humidity 34    
Precipitation  
Precipitation 0.00 in - - ()
Sea Level Pressure  
Sea Level Pressure 30.13 in    
Wind  
Wind Speed 6 mph (SW)    
Max Wind Speed 9 mph    
Max Gust Speed -    
Visibility 10 miles    
Events      
Averages and records for this station are not official NWS values.
T = Trace of Precipitation, MM = Missing Value Source: NWS Daily Summary

Daily Weather History Graph

Daily Weather History Graph

Search for Another Location

Airport:

Trip Planner

Search our weather history database for the weather conditions in past years. The results will help you decide how hot, cold, wet, or windy it might be!

Date:

Astronomy

Feb. 13, 2012 Rise Set
Actual Time 7:35 AM EST 6:08 PM EST
Civil Twilight 7:07 AM EST 6:37 PM EST
Nautical Twilight 6:34 AM EST 7:09 PM EST
Astronomical Twilight 6:02 AM EST 7:41 PM EST
Moon 12:09 AM EST (2/13) 10:28 AM EST (2/13)
Length of Visible Light 11h 29m
Length of Day
10h 32m
Waning Gibbous, 62% of the Moon is Illuminated
Feb 13
Waning Gibbous
Feb 14
Last Quarter
Feb 21
New
Feb 29
First Quarter
Mar 8
Full

Hourly Weather History & Observations

Time (EST) Temp. Windchill Dew Point Humidity Pressure Visibility Wind Dir Wind Speed Gust Speed Precip Events Conditions
12:53 AM 25.0 °F 18.1 °F 15.1 °F 66% 30.21 in 10.0 mi WSW 5.8 mph - N/A   Clear
1:53 AM 24.1 °F 18.2 °F 14.0 °F 65% 30.20 in 10.0 mi WSW 4.6 mph - N/A   Clear
2:53 AM 23.0 °F 17.0 °F 12.9 °F 65% 30.21 in 10.0 mi WSW 4.6 mph - N/A   Clear
3:53 AM 23.0 °F 17.0 °F 12.0 °F 63% 30.19 in 10.0 mi WSW 4.6 mph - N/A   Clear
4:53 AM 21.0 °F 13.4 °F 10.9 °F 65% 30.19 in 10.0 mi SW 5.8 mph - N/A   Clear
5:53 AM 21.9 °F 14.5 °F 10.9 °F 63% 30.19 in 10.0 mi SW 5.8 mph - N/A   Clear
6:53 AM 21.0 °F 14.6 °F 10.9 °F 65% 30.20 in 10.0 mi WSW 4.6 mph - N/A   Clear
7:53 AM 21.0 °F 14.6 °F 10.0 °F 63% 30.20 in 10.0 mi SW 4.6 mph - N/A   Clear
8:53 AM 23.0 °F 14.7 °F 12.0 °F 63% 30.22 in 10.0 mi SW 6.9 mph - N/A   Clear
9:53 AM 27.0 °F 18.0 °F 12.0 °F 53% 30.22 in 10.0 mi SW 9.2 mph - N/A   Clear
10:53 AM 28.9 °F 21.9 °F 14.0 °F 54% 30.21 in 10.0 mi WSW 6.9 mph - N/A   Clear
11:53 AM 32.0 °F 24.8 °F 12.9 °F 45% 30.20 in 10.0 mi WSW 8.1 mph - N/A   Clear
12:53 PM 35.1 °F 28.6 °F 12.9 °F 40% 30.16 in 10.0 mi SW 8.1 mph - N/A   Clear
1:53 PM 35.1 °F 28.6 °F 9.0 °F 34% 30.13 in 10.0 mi WSW 8.1 mph - N/A   Overcast
2:53 PM 33.1 °F 26.1 °F 10.9 °F 40% 30.11 in 10.0 mi SW 8.1 mph - N/A   Mostly Cloudy
3:53 PM 34.0 °F 27.2 °F 10.9 °F 38% 30.11 in 10.0 mi SW 8.1 mph - N/A   Overcast
4:53 PM 34.0 °F 26.6 °F 12.9 °F 42% 30.08 in 10.0 mi SW 9.2 mph - N/A   Scattered Clouds
5:53 PM 33.1 °F 27.7 °F 15.1 °F 48% 30.06 in 10.0 mi SSW 5.8 mph - N/A   Scattered Clouds
6:53 PM 32.0 °F 27.5 °F 17.1 °F 54% 30.06 in 10.0 mi South 4.6 mph - N/A   Overcast
7:53 PM 32.0 °F 28.7 °F 16.0 °F 52% 30.04 in 10.0 mi SSE 3.5 mph - N/A   Overcast
8:53 PM 32.0 °F 27.5 °F 18.0 °F 56% 30.03 in 10.0 mi SSW 4.6 mph - N/A   Overcast
9:53 PM 32.0 °F 26.4 °F 18.0 °F 56% 30.02 in 10.0 mi South 5.8 mph - N/A   Overcast
10:53 PM 32.0 °F 24.8 °F 19.9 °F 61% 30.01 in 10.0 mi South 8.1 mph - N/A   Overcast
11:53 PM 32.0 °F 24.2 °F 21.9 °F 66% 29.99 in 10.0 mi SSW 9.2 mph - N/A   Overcast